Theta_e
285 285 285 286 286 286 285 284 283 284 284 285 286 286 287 287 287 287 287 287 286 287 287 287 288 288 289 287 287 288 287 285 287 280 281 282 284 285 286 284 284 283 285
284 284 283 284 284 284 284 284 282 283 283 283 284 284 285 285 285 285 285 287 286 286 286 286 287 288 287 286 287 288 288 287 286 279 279 280 281 284 284 282 282 281 281
283 282 282 281 281 281 282 283 282 282 281 282 282 282 283 283 283 284 284 285 286 286 286 286 286 285 286 287 285 286 286 286 287 280 277 279 279 283 280 279 279 278 280
281 281 280 280 280 280 281 281 281 280 279 280 280 282 282 283 283 283 284 283 284 286 286 286 286 285 286 286 285 285 285 285 285 284 277 277 277 280 281 279 278 279 279
281 280 279 279 280 279 279 280 280 279 278 279 279 280 281 282 282 282 282 283 283 284 285 285 286 286 287 288 286 286 285 284 284 284 282 275 277 278 279 279 279 279 280
279 279 279 279 280 280 279 279 279 279 278 278 278 278 279 280 285 286 286 283 284 284 283 284 285 285 286 289 291 291 288 285 285 284 284 280 279 279 280 279 279 277 276
280 279 279 279 278 279 279 279 278 277 277 277 277 277 277 278 283 285 285 282 282 283 283 284 284 285 285 285 287 290 291 291 290 286 284 284 281 280 279 279 279 280 280
277 277 278 278 277 278 278 277 277 277 276 276 276 276 276 276 281 282 283 280 281 282 283 283 283 284 285 284 284 284 285 286 288 287 286 286 285 282 281 281 281 281 278
277 277 277 276 275 276 275 275 276 275 275 274 275 274 274 274 279 279 279 277 278 279 281 283 283 283 286 287 285 283 283 284 288 290 290 290 290 289 284 282 278 277 271
275 275 274 273 272 271 272 272 272 272 273 273 273 273 273 272 276 277 277 275 274 277 279 281 284 283 286 287 285 284 281 282 283 284 285 288 289 288 286 283 281 278 278
271 271 270 269 267 267 267 267 267 267 268 267 268 269 269 270 270 274 275 273 274 275 276 279 281 285 287 288 288 285 284 284 284 283 283 283 284 283 283 283 283 282 279
268 267 265 264 264 264 263 263 263 263 263 263 263 264 266 268 270 272 274 275 276 275 275 278 280 284 286 286 286 288 288 287 283 282 281 281 281 281 281 282 281 282 282
263 261 261 262 262 262 261 261 261 261 261 261 262 262 263 266 267 270 272 273 275 274 276 279 283 284 285 285 287 288 287 285 283 281 280 280 280 281 282 280 280 279 277
260 260 261 260 260 261 261 262 261 260 260 261 260 260 261 262 263 265 266 267 270 271 273 277 280 282 283 283 284 286 286 284 282 281 279 280 280 279 278 279 277 276 274
260 260 260 260 260 260 261 261 261 263 263 262 263 264 264 264 266 269 270 269 269 271 272 273 274 276 276 279 282 282 283 283 281 281 279 278 278 278 277 277 275 274 272
259 259 259 259 259 260 259 260 265 267 269 270 271 270 268 271 272 273 273 274 274 275 271 271 271 273 275 278 279 279 280 281 281 281 279 278 276 275 273 273 273 273 271
258 259 259 259 259 259 259 259 258 262 268 269 270 270 271 271 272 272 273 273 274 274 270 270 271 273 276 277 277 278 278 280 280 278 278 275 274 273 272 271 271 271 271
260 260 259 259 259 259 259 260 260 260 260 261 267 268 270 272 272 273 273 273 269 270 270 270 270 272 275 276 276 277 278 276 277 275 274 274 273 272 272 271 270 270 269
259 259 259 259 259 260 261 261 262 262 262 262 264 267 267 270 271 273 274 270 269 268 269 270 271 274 276 276 277 278 275 275 274 274 273 273 272 271 270 270 270 270 269
259 260 260 260 260 260 261 261 261 262 263 264 264 265 266 266 266 268 270 269 271 272 273 274 277 277 277 276 275 275 274 274 273 272 271 271 271 271 269 269 269 268 267
259 259 259 259 259 260 261 261 261 262 262 262 263 264 270 264 263 264 264 265 266 272 275 274 270 272 274 273 273 272 272 271 271 270 270 270 270 269 269 269 268 267 267
258 258 258 258 259 259 260 261 261 261 261 261 261 262 267 262 262 262 263 264 264 266 267 268 268 269 271 271 270 270 269 268 268 268 268 268 268 268 267 267 266 266 266
257 257 257 257 258 259 259 260 260 260 260 260 260 260 261 260 260 261 261 262 263 264 265 266 266 266 267 268 268 268 267 267 267 268 267 267 267 266 266 265 265 265 264
257 256 256 256 257 258 258 259 259 260 260 260 260 260 260 260 260 260 260 261 261 262 262 263 263 264 265 265 266 266 267 267 267 267 267 266 265 265 265 265 265 265 264
253 255 255 256 256 256 257 257 258 259 259 259 259 260 260 260 260 260 261 261 260 260 260 261 261 261 261 262 263 265 267 266 266 266 266 265 265 265 264 264 264 264 264
252 252 252 254 255 256 256 256 256 257 257 258 258 258 259 259 259 259 260 260 260 260 260 260 260 260 262 262 263 264 265 265 263 264 265 264 263 263 263 262 262 262 262
Wind_Speed
5 4 4 5 7 8 8 7 6 5 6 6 7 7 7 7 7 7 7 7 9 9 8 9 11 9 10 7 6 8 7 5 9 3 3 5 10 11 9 9 10 8 9
2 2 3 5 3 3 2 4 7 8 8 7 5 6 7 8 8 7 7 8 8 10 9 11 12 8 12 9 9 14 14 10 7 6 4 4 6 14 11 12 8 8 8
1 4 4 3 3 4 4 4 4 5 6 8 9 9 8 6 7 8 8 10 10 11 10 11 12 10 13 10 10 12 11 10 12 5 5 3 3 9 7 5 7 4 5
4 4 5 5 5 5 6 6 6 6 6 6 7 9 10 10 8 8 8 9 11 13 12 12 13 13 15 14 13 13 11 11 12 10 4 5 4 6 9 10 8 6 9
6 7 7 7 7 6 7 7 6 6 7 7 9 9 9 8 7 8 8 9 11 13 13 13 14 15 18 17 12 13 12 12 11 13 9 4 7 9 16 9 10 8 7
7 7 6 7 8 10 10 9 9 9 8 8 12 12 12 9 18 21 17 11 13 13 14 14 14 16 17 24 26 28 19 16 17 13 13 14 16 12 13 12 10 8 8
6 8 10 9 10 11 11 11 11 12 10 13 13 12 14 15 25 26 25 14 14 14 15 13 14 12 16 15 21 28 29 30 30 18 17 20 15 16 16 16 16 13 10
7 8 10 10 11 14 15 16 16 13 15 15 16 16 16 16 30 30 29 18 17 18 17 17 16 17 17 17 16 18 20 20 23 19 20 19 14 14 19 19 20 17 3
9 10 10 9 10 13 15 17 17 17 17 18 18 19 19 20 30 32 29 18 18 21 18 18 18 19 24 29 19 16 19 20 21 31 31 26 24 22 21 11 12 12 4
9 10 10 10 12 15 16 16 16 16 19 17 21 20 23 23 31 36 31 15 19 17 19 20 26 23 29 29 19 18 17 20 17 16 16 23 22 19 31 20 15 16 12
10 12 13 12 12 14 17 16 17 18 19 20 22 21 23 22 24 37 36 20 17 17 17 16 15 28 29 30 31 18 21 15 20 15 13 14 14 12 15 16 16 15 15
11 12 14 14 12 12 15 15 16 16 18 19 20 19 16 18 26 30 34 34 32 21 20 17 17 28 29 29 26 30 32 25 12 11 11 13 14 14 12 15 11 10 6
11 12 13 14 13 13 14 15 14 14 14 15 14 16 15 13 13 29 32 33 32 23 17 24 32 32 31 26 29 29 25 15 13 13 13 14 13 12 12 9 9 10 8
13 13 13 13 14 13 11 11 12 12 13 13 14 16 16 15 14 13 13 14 24 22 23 18 23 25 26 23 18 19 14 12 13 12 11 10 8 9 10 10 9 11 10
13 13 14 12 14 14 13 12 13 15 16 15 14 15 15 15 14 25 24 15 13 19 22 15 12 10 11 13 13 12 12 12 12 11 10 10 10 10 10 8 9 9 8
13 12 11 12 12 13 13 13 24 31 33 34 36 29 17 31 38 37 36 35 33 32 19 14 13 13 12 10 10 9 10 13 10 10 11 11 11 11 9 8 9 11 10
12 15 12 13 12 13 13 14 16 17 31 34 34 34 34 33 35 34 34 33 32 28 14 14 13 12 11 8 8 7 8 10 8 9 10 11 12 11 15 11 11 10 9
13 18 12 11 12 13 13 14 14 15 16 16 24 26 29 32 32 31 31 26 13 14 12 12 12 13 13 8 8 9 7 6 8 9 10 12 13 14 12 11 10 10 9
13 11 11 11 12 14 13 13 13 14 15 15 16 20 18 26 29 31 31 12 12 11 11 12 12 12 11 8 8 8 9 10 10 10 10 10 10 11 10 9 9 12 12
12 16 14 11 11 12 12 13 13 13 14 12 14 12 12 14 11 11 10 9 9 9 11 12 9 9 7 7 7 7 7 8 9 8 9 9 9 9 10 11 11 11 10
10 11 14 10 10 11 11 12 13 12 12 12 11 12 27 11 11 10 10 10 13 5 5 1 2 3 5 5 7 7 8 7 8 9 9 9 9 9 9 9 10 9 9
9 9 9 9 10 11 12 11 11 11 12 12 11 11 24 9 9 10 10 10 11 10 9 9 8 7 5 5 7 8 8 9 8 9 9 10 10 10 10 10 10 9 9
8 9 9 8 9 13 10 11 10 11 11 11 11 10 10 9 10 10 10 10 10 10 9 9 8 8 8 8 7 7 8 7 7 8 10 10 10 10 10 10 10 9 8
7 8 8 8 8 9 10 11 10 12 11 10 10 10 10 10 10 11 10 10 10 10 10 10 10 11 9 9 7 7 7 7 7 8 11 10 10 11 9 9 9 10 8
5 7 7 7 8 8 9 10 10 10 10 11 11 10 10 10 10 11 10 10 10 10 12 11 10 13 14 15 13 12 13 13 10 11 8 11 12 12 9 8 9 8 8
5 5 4 5 6 7 8 9 9 10 10 10 10 10 10 10 10 10 10 11 10 10 11 10 12 15 14 11 12 13 14 15 13 14 9 9 9 8 7 8 9 6 6
Wind_Direction
358 331 353 9 7 13 9 359 0 348 337 327 321 328 324 312 307 289 267 256 253 249 240 230 235 231 234 226 216 220 213 173 221 232 171 184 175 180 175 181 186 184 193
324 343 16 34 348 352 325 326 330 332 314 323 318 318 317 314 306 299 282 271 261 254 247 244 241 230 234 228 219 223 223 212 194 171 176 160 190 187 175 180 186 191 178
13 4 345 349 339 293 275 264 269 289 318 322 325 323 314 293 293 286 284 287 279 267 257 252 251 233 237 231 226 231 226 221 219 168 180 173 157 175 158 175 181 189 189
349 331 321 316 306 300 299 300 301 307 301 293 291 294 299 300 290 282 276 274 274 272 266 259 256 244 242 234 228 226 225 221 216 211 182 170 159 169 179 176 191 204 205
339 330 318 316 312 306 297 297 296 291 289 280 288 283 271 273 277 283 274 269 269 271 266 261 258 256 249 235 229 229 219 218 218 220 209 179 182 161 187 183 196 193 209
330 315 309 313 313 313 311 306 301 294 285 286 288 283 282 279 275 278 285 276 269 268 267 264 260 257 254 252 243 235 219 213 221 218 221 219 205 191 182 180 179 179 211
299 299 302 305 303 302 298 296 292 296 293 293 288 284 282 282 284 282 284 281 273 264 261 263 265 259 252 249 251 245 241 228 222 216 224 222 208 194 176 181 191 197 210
289 283 288 291 294 298 299 295 293 295 293 290 288 287 286 285 285 284 285 281 274 266 258 254 253 259 254 247 243 248 246 239 233 224 223 231 225 194 194 188 191 192 70
292 291 292 294 295 297 294 293 293 296 293 291 286 284 283 282 284 287 289 285 277 272 264 256 247 251 252 252 245 236 240 244 241 236 233 227 227 202 197 174 186 171 178
303 310 314 313 309 304 303 301 299 294 289 289 286 283 282 283 284 285 287 283 277 271 268 260 249 243 249 248 243 238 234 235 235 237 233 234 228 217 193 195 180 189 187
319 310 306 308 306 299 296 294 293 291 287 284 282 281 280 279 282 284 284 276 268 268 263 258 253 250 248 246 243 234 235 229 231 227 226 225 219 207 195 202 195 198 193
308 307 304 302 297 294 289 288 287 287 285 284 284 283 281 283 282 285 287 282 276 269 260 255 253 256 256 256 252 242 237 234 221 214 208 210 211 212 206 188 184 203 216
309 300 296 294 293 290 290 289 288 283 280 281 282 285 288 288 286 290 295 296 290 280 272 267 257 254 258 261 257 245 236 224 215 212 211 214 208 201 197 179 163 131 107
304 301 299 297 296 290 284 284 285 284 282 283 283 281 280 278 277 278 275 276 285 291 287 290 263 258 260 255 251 241 226 218 213 214 210 200 192 185 189 177 165 161 144
302 301 301 298 298 297 289 286 282 277 276 277 273 274 280 279 275 276 276 270 264 272 280 284 287 257 248 251 244 226 214 212 209 206 197 187 184 178 183 176 161 156 167
302 305 303 299 296 294 293 290 285 289 292 291 291 289 286 286 292 291 288 285 281 276 275 270 270 270 248 250 234 215 210 211 206 203 189 181 176 165 151 151 155 168 167
297 302 298 297 295 294 294 294 296 294 294 293 293 294 294 295 296 292 287 284 280 275 259 264 266 264 262 222 215 213 207 209 194 182 179 163 156 156 156 162 170 167 167
301 296 294 293 293 292 291 292 293 296 299 297 297 295 293 296 299 297 293 291 279 272 270 260 250 253 263 202 203 206 196 167 170 156 160 163 163 161 167 165 168 166 153
302 296 297 296 293 291 292 294 295 296 296 294 295 295 298 299 299 295 294 279 263 250 243 244 243 242 236 199 201 198 168 168 163 159 161 160 156 155 156 152 154 153 147
304 295 303 304 304 304 304 303 304 307 306 309 316 307 303 302 308 315 318 286 274 245 244 242 219 197 191 183 167 153 153 152 148 145 145 145 144 147 147 147 150 148 147
307 309 310 307 310 309 311 314 312 315 316 319 319 323 331 341 325 328 331 333 335 311 281 67 50 113 136 132 123 126 131 129 133 134 134 133 134 136 138 138 135 132 128
314 304 313 313 314 318 321 319 323 324 325 325 327 332 347 346 343 342 344 348 352 2 14 30 38 38 51 94 113 115 117 120 124 125 127 129 130 131 132 131 131 129 129
309 313 315 317 320 322 325 330 332 335 333 334 335 341 351 355 354 354 353 354 359 7 15 29 39 44 46 53 61 88 110 118 123 127 127 128 129 129 130 129 130 129 128
312 315 320 324 328 331 332 335 338 342 343 346 349 353 358 1 4 4 5 4 10 17 21 28 35 40 44 52 56 65 79 93 102 115 120 120 119 120 118 118 122 124 127
309 314 325 331 334 339 337 339 342 347 352 356 358 1 360 4 10 12 12 15 21 25 29 29 32 38 43 51 58 68 82 89 94 100 102 105 107 111 115 114 119 118 124
311 313 314 325 338 344 344 343 346 350 354 356 357 360 2 5 7 10 14 19 21 25 28 30 33 39 44 53 64 74 79 80 77 82 90 97 99 101 103 112 118 122 133